Location: Unspecified
(0.0000°N, 0.0000°E)
Time: 13:18:36
(UTC+00:00)

LES 2 - Pass Details

Date: 14 August 2024
Orbit: 2771 x 14805 km, 32.2° (Epoch: 15 September)

Event Time Altitude Azimuth Distance (km) Brightness Sun altitude
Exits shadow 02:23:50 38° 202° (SSW) 10,108 ? -52.8°
Maximum altitude 03:14:31 60° 133° (SE) 13,913 ? -41.0°
Drops below altitude 10° 05:24:30 10° 60° (ENE) 14,572 ? -9.7°
Sets 05:35:34 0° 59° (ENE) 14,306 ? -7.1°
